This is the latest recevied weather packets stored in our database for station/object YO2KCB-10. If no packets are shown the sender has not sent any weather packets the latest 10 day(s).
| Time | Temp. | Humidity | Pressure | Rain* | Wind** | Luminosity | Snow |
|---|---|---|---|---|---|---|---|
| 1777448900 | 17.22° C | 27% | 1018.1 hPa | - | - | - | - |
| 1777447700 | 16.67° C | 27% | 1018.1 hPa | - | - | - | - |
| 1777446500 | 16.11° C | 27% | 1017.8 hPa | - | - | - | - |
| 1777445300 | 15° C | 28% | 1017.8 hPa | - | - | - | - |
| 1777444100 | 14.44° C | 28% | 1017.8 hPa | - | - | - | - |
| 1777442900 | 13.89° C | 28% | 1017.8 hPa | - | - | - | - |
| 1777441699 | 13.33° C | 29% | 1017.7 hPa | - | - | - | - |
| 1777440499 | 12.78° C | 28% | 1017.4 hPa | - | - | - | - |
| 1777439299 | 11.67° C | 28% | 1017.3 hPa | - | - | - | - |
| 1777438099 | 11.11° C | 28% | 1017.2 hPa | - | - | - | - |
| 1777436899 | 10.56° C | 28% | 1017.2 hPa | - | - | - | - |
| 1777435699 | 10° C | 27% | 1017 hPa | - | - | - | - |
| 1777434498 | 10.56° C | 28% | 1016.9 hPa | - | - | - | - |
| 1777433298 | 10° C | 28% | 1016.7 hPa | - | - | - | - |
| 1777432098 | 10.56° C | 28% | 1016.6 hPa | - | - | - | - |
| 1777430898 | 10.56° C | 27% | 1016.7 hPa | - | - | - | - |
| 1777429698 | 11.11° C | 27% | 1016.9 hPa | - | - | - | - |
| 1777428498 | 11.67° C | 27% | 1016.9 hPa | - | - | - | - |
| 1777427297 | 11.67° C | 27% | 1017 hPa | - | - | - | - |
| 1777426097 | 12.22° C | 26% | 1017 hPa | - | - | - | - |
| 1777424897 | 12.22° C | 26% | 1017 hPa | - | - | - | - |
| 1777423697 | 12.22° C | 26% | 1017 hPa | - | - | - | - |
| 1777422497 | 12.78° C | 26% | 1017.1 hPa | - | - | - | - |
| 1777421297 | 12.78° C | 26% | 1017 hPa | - | - | - | - |
| 1777420097 | 12.78° C | 26% | 1017.1 hPa | - | - | - | - |
* Rain since midnight (hover to see other rain measurements)
** Current wind speed in m/s (hover to see current wind gust speed)